{"data":{"norad_id":39767,"epoch":"2026-09-19T14:05:38.555520Z","epoch_age_seconds":116043,"freshness":"FRESH","line1":"1 39767U 14029B   26262.58725180  .00000915  00000+0  86350-4 0  9992","line2":"2 39767  97.8062 359.6697 0005120   9.6449 350.4870 14.96191978668339","mean_motion":14.96191978,"eccentricity":0.000512,"inclination_deg":97.8062,"raan_deg":359.6697,"arg_perigee_deg":9.6449,"mean_anomaly_deg":350.487,"bstar":8.635e-5,"rev_number":66833,"period_min":96.244333693386,"perigee_km":575.11353165234,"apogee_km":582.23730757002,"semimajor_km":6956.8124196112,"source":"CELESTRAK","updated_at":"2026-09-20T09:00:13.971591Z"}}